Tracking 30101 objects as of 14-Dec-2024
HD Live streaming from Space Station
objects crossing your sky now

PSLV DEB

Track PSLV DEB now!
10-day predictions


NORAD ID: 27142
Int'l Code: 2001-049CN
Perigee: 655.2 km
Apogee: 1,060.2 km
Inclination: 97.4 °
Period: 101.9 minutes
Semi major axis: 7228 km
RCS: 0.0118 m2 (small)
Launch date: October 22, 2001
Source: India (IND)
Launch site: SRIHARIKOTA (SRI)

Note: This is SATELLITE DEBRIS
Your satellite tracking list
Your tracking list is empty




NASA's NSSDC Master Catalog

Two Line Element Set (TLE):
1 27142U 01049CN  24348.79212260  .00000825  00000-0  32024-3 0  9999
2 27142  97.3843 114.4481 0280116  17.8378 343.2394 14.12586991181371
Source of the keplerian elements: AFSPC